Regional Weather Roundup
Issued by NWS

Home | Current Version | Previous Version | Graphics & Text | Print | Product List | Glossary On
Versions: 1 2 3 4 5 6 7 8 9 10 11 12 13 14 15 16 17 18 19 20 21 22 23 24 25 26 27 28 29 30 31 32 33 34 35 36 37 38 39 40 41 42 43 44 45 46 47 48 49 50
000
ASUS43 KOAX 211410
RWRNE

WEATHER ROUNDUP FOR NEBRASKA
NATIONAL WEATHER SERVICE OMAHA NE
800 AM CST SUN JAN 21 2018

NOTES: SATELLITE DATA IS BEING USED TO AUGMENT CLOUD COVER ABOVE
       12000 FEET.
       "FAIR" INDICATES FEW OR NO CLOUDS BELOW 12,000 FEET WITH NO
       SIGNIFICANT WEATHER AND/OR OBSTRUCTIONS TO VISIBILITY.


NEZ001>004-019>022-054>056-211500-
NEBRASKA PANHANDLE

CITY           SKY/WX    TMP DP  RH WIND       PRES   REMARKS
SCOTTSBLUFF    LGT SNOW  29  26  89 N17       29.89S FOG     WCI  17
ALLIANCE       LGT SNOW  27  27 100 N14       29.89S FOG     WCI  16
CHADRON        CLOUDY    29  27  92 N13       29.97R FOG     WCI  19
GORDON         LGT SNOW  30  28  93 N9        29.93R WCI  21
KIMBALL        FLURRIES  26  26  97 NE13      29.83F WCI  15
SIDNEY         LGT SNOW  28  26  92 NE17      29.84S FOG     WCI  16
$$

NEZ057>060-069>072-079>082-211500-
SOUTHWEST NEBRASKA

CITY           SKY/WX    TMP DP  RH WIND       PRES   REMARKS
NORTH PLATTE   PTCLDY    33  28  81 NE18G28   29.81S WCI  22
IMPERIAL       CLOUDY    32  29  88 N18G25    29.81R WCI  20
LEXINGTON      CLOUDY    34  31  89 N13       29.78S WCI  25
MCCOOK         MIX PCPN  32  31  96 N7        29.80R FOG     WCI  26
OGALLALA       CLOUDY    34  30  85 N15G23    29.85R WCI  24
$$

NEZ005>010-023>029-035>040-094-211500-
NORTH CENTRAL NEBRASKA

CITY           SKY/WX    TMP DP  RH WIND       PRES   REMARKS
VALENTINE      LGT SNOW  34  32  92 N12       29.92S FOG     WCI  25
AINSWORTH      CLOUDY    33  32  97 NE12      29.91R WCI  24
BROKEN BOW     CLOUDY    33  28  81 N20G28    29.81F WCI  21
O`NEILL        CLOUDY    31  30  96 N9        29.89S WCI  23
ORD            CLOUDY    33  28  81 NE15      29.83R WCI  23
THEDFORD       PTCLDY    32  30  93 N13       29.89R WCI  22
$$

NEZ041-046>049-061>064-073>077-083>087-211500-
SOUTH CENTRAL NEBRASKA

CITY           SKY/WX    TMP DP  RH WIND       PRES   REMARKS
GRAND ISLAND   CLOUDY    33  33 100 N15       29.79S FOG     WCI  23
AURORA         CLOUDY    34  33  96 N15       29.78S FOG     WCI  24
HASTINGS       LGT SNOW  33  31  92 N14       29.77R FOG     WCI  23
HEBRON         FOG       40  39  97 NE8       29.73S VSB 1   WCI  35
HOLDREGE       CLOUDY    32  32 100 N17       29.75F FOG     WCI  21
KEARNEY        MIX PCPN  32  31  96 N18       29.77F FOG     WCI  20
YORK           CLOUDY    37  37 100 NE12      29.77S WCI  30
$$

NEZ011>018-030>034-042>045-211500-
NORTHEAST NEBRASKA

CITY           SKY/WX    TMP DP  RH WIND       PRES   REMARKS
NORFOLK        CLOUDY    46  30  53 NE10      29.83F
ALBION         CLOUDY    35  32  87 N10       29.84F WCI  27
BLAIR          CLOUDY    38  36  91 N13       29.79F FOG     WCI  31
COLUMBUS       CLOUDY    36  33  89 N14       29.81F WCI  27
FREMONT        CLOUDY    38  35  89 N7        29.82S WCI  32
TEKAMAH        CLOUDY    36  31  82 N14       29.83F WCI  27
WAYNE          CLOUDY    32  31  96 N8        29.86F WCI  24
$$

NEZ050>053-065>068-078-088>093-211500-
SOUTHEAST NEBRASKA

CITY           SKY/WX    TMP DP  RH WIND       PRES   REMARKS
LINCOLN        CLOUDY    40  37  89 N10       29.78F FOG     WCI  33
OMAHA EPPLEY   CLOUDY    40  37  89 N8        29.81S WCI  34
BEATRICE       FOG       40  40 100 E10       29.74S VSB 1   WCI  34
FALLS CITY     FOG       42  42 100 E6        29.74F VSB 1/4
NEBRASKA CITY  FOG       40  40 100 NE6       29.77S VSB 1/4
PLATTSMOUTH    CLOUDY    39  39 100 NE9       29.78F FOG     WCI  33
$$

NEZ044-045-051>053-067-211500-
OMAHA AREA

CITY           SKY/WX    TMP DP  RH WIND       PRES   REMARKS
OMAHA EPPLEY   CLOUDY    40  37  89 N8        29.81S WCI  34
BLAIR          CLOUDY    38  36  91 N13       29.79F FOG     WCI  31
FREMONT        CLOUDY    38  35  89 N7        29.82S WCI  32
MILLARD        CLOUDY    42  39  89 CALM      29.80F
OFFUTT AFB     MOCLDY    41  39  92 NE8       29.79S
PLATTSMOUTH    CLOUDY    39  39 100 NE9       29.78F FOG     WCI  33
WAHOO          CLOUDY    38  35  86 N12G17    29.80S WCI  31
$$



USA.gov is the U.S. government's official web portal to all federal, state and local government web resources and services.